658  
ASUS43 KEAX 191710  
RWREAX  
 
WEATHER ROUNDUP FOR EASTERN KANSAS AND NORTHWEST MISSOURI  
NATIONAL WEATHER SERVICE KANSAS CITY/PLEASANT HILL MO  
1200 PM CDT FRI OCT 19 2018  
 
KSZ040-057-103>105-MOZ028-029-037-043-191800-   
..KANSAS CITY METROPOLITAN AREA
 
 
 
CITY SKY/WX TMP DP RH WIND PRES REMARKS
 
K.C. INTL CLOUDY 55 51 86 SW12 30.10F  
K.C. DOWNTOWN CLOUDY 58 50 75 SW13G23 30.11F  
LEES SUMMIT CLOUDY 57 52 83 SW13 30.12F  
OLATHE - IXD CLOUDY 56 52 86 SW10G23 30.14S FOG  
OLATHE - OJC CLOUDY 55 51 86 SW13G20 30.13S  
LAWRENCE CLOUDY 57 53 86 SW9 30.11F  
 

 
 
MOZ001>008-011>017-020>025-030>033-038>040-044>046-053-054-191800-   
..NORTHERN AND CENTRAL MISSOURI
 
 
 
CITY SKY/WX TMP DP RH WIND PRES REMARKS
 
ST. JOSEPH CLOUDY 56 53 90 SW13 30.08F  
MOSBY CLOUDY 57 48 72 SW9G17 30.11F  
WARRENSBURG CLOUDY 57 48 72 SW15G21 30.12F  
WHITEMAN AFB CLOUDY 57 49 74 SW16 30.08F  
CLINTON CLOUDY 54 50 87 SW10 30.16S  
SEDALIA CLOUDY 54 48 80 SW17G24 30.14F  
WARSAW NOT AVBL  
CHILLICOTHE N/A 58 50 75 SW8 30.09F  
KIRKSVILLE CLOUDY 57 47 69 SW16G26 30.07F  
 

 
 
MOZ041-047>049-056>058-063>065-088>090-097-191800-   
..EASTERN AND SOUTHERN MISSOURI
 
 
 
CITY SKY/WX TMP DP RH WIND PRES REMARKS
 
ST. LOUIS INTL LGT RAIN 55 40 56 SW17 30.16F  
SPIRIT OF STL CLOUDY 54 42 64 SW8 30.15F  
COLUMBIA CLOUDY 54 46 74 SW14 30.13F  
JEFFERSON CITY CLOUDY 55 44 66 SW8 30.15F  
ROLLA CLOUDY 50 43 77 SW15 30.17F  
OSAGE BEACH LGT RAIN 53 48 83 SW15 30.17F  
SPRINGFIELD CLOUDY 52 48 86 S13 30.19F  
BRANSON LGT RAIN 46 46 100 CALM 30.25F  
JOPLIN CLOUDY 53 50 89 S13 30.21F  
WEST PLAINS LGT RAIN 47 45 93 W6 30.24F FOG  
 

 
 
IAZ060-094-KSZ022-034>040-054-083-096-NEZ052-066-093-191800-    
..KANSAS...SOUTHEAST NEBRASKA AND IOWA
 
 
 
CITY SKY/WX TMP DP RH WIND PRES REMARKS
 
TOPEKA CLOUDY 57 51 80 SW8 30.11F  
MANHATTAN CLOUDY 61 51 70 SW12G23 30.10F  
EMPORIA CLOUDY 55 51 86 SW13 30.14F  
CHANUTE CLOUDY 55 54 96 SW9 30.18F  
WICHITA CLOUDY 56 54 93 SW12 30.16F  
OMAHA MOSUNNY 64 49 57 SW13 29.98F  
LINCOLN SUNNY 64 49 57 W17G26 30.02F  
FALLS CITY CLOUDY 61 50 67 SW16G26 30.05F  
LAMONI CLOUDY 55 52 89 SW17G24 30.03F  
DES MOINES CLOUDY 58 50 75 SW22G31 29.95F  
 

 
 
 
 
CLICK HERE TO GO TO PREVIOUS BULLETINS.

The Nexlab MO Page
The Nexlab KS Page Main Text Page